Location: Antioch Baptist Church
(32.6696°N, 85.7327°W)
Time: 12:14:34
(UTC+00:00)

USA 238 DEB - Pass Details

Date: 14 July 2020
Orbit: 1012 x 1200 km, 63.4° (Epoch: 05 August)

Event Time Altitude Azimuth Distance (km) Brightness Sun altitude
Exits shadow 08:20:46 35° 165° (SSE) 1,574 4.3 -24.7°
Maximum altitude 08:23:06 50° 114° (ESE) 1,279 4.1 -24.4°
Drops below altitude 10° 08:29:33 10° 41° (NE) 2,867 7.1 -23.6°
Sets 08:32:17 0° 36° (NE) 3,849 8.1 -23.2°
